www.pogodaiklimat.ru

Погода и климат >> Архив погоды >> Финляндия >> Йокиойнен


ПОГОДА в Йокиойнене

  • Прогноз погоды в Йокиойнене
  • Монитор погоды в Йокиойнене

АРХИВ ПОГОДЫ в Йокиойнене

Время (UTC), дата Ветер
(напр.,м/с)
 
Видим.   Явления Облачность Т
(С)
Тd
(С)
f
(%)
Тe
(С)
Тes
(С)
Комфортность P
(гПа)
Po
(гПа)
Тmin
(С)
Tmax
(С)
R
(мм)
R24
(мм)
S
(см)
19 10.06 ЮЗ 4-6
{9}
50 км ясно +15.2 +8.0 62 +14 +14 1020.1 1007.5
20 10.06 ЮЗ 3-4
{6}
50 км ясно +13.6 +8.1 69 +13 +13 1020.2 1007.6
21 10.06 ЮЗ 3-5
{5}
50 км ясно +12.3 +8.7 79 +11 +11 1020.4 1007.8
22 10.06 ЮЗ 3-5
{6}
50 км ясно +11.2 +8.9 86 +9 +9 1020.9 1008.2
23 10.06 ЮЗ 3-5
{5}
45 км ясно +10.4 +8.8 90 +8 +8 1021.3 1008.6
00 11.06 ЮЗ 2-3
{5}
45 км ясно +9.8 +8.6 92 +8 +8 1021.5 1008.7
01 11.06 ЮЗ 3-4
{4}
35 км ясно +9.1 +8.6 97 +6 +6 1021.5 1008.7
02 11.06 ЮЗ 3-4
{4}
35 км ясно +9.4 +8.6 95 +7 +7 1021.6 1008.8
03 11.06 ЮЗ 3-4
{5}
40 км ясно +10.5 +9.3 92 +8 +9 1021.6 1008.9
04 11.06 ЮЗ 1-3
{4}
35 км ясно +12.0 +9.8 86 +12 +14 1022.0 1009.3
05 11.06 ЮЗ 1-2
{4}
40 км ясно +14.2 +10.6 79 +15 +19 1022.2 1009.6
06 11.06 З 1-2
{4}
45 км ясно +16.6 +10.3 66 +18 +25 1022.0 1009.5 +8.3 +16.6
07 11.06 З 2-4
{5}
24 км ясно +18.1 +10.0 59 +19 +27 1022.0 1009.6
08 11.06 ЮЗ 3-5
{6}
30 км 1/0
[]
+19.7 +8.0 47 +21 +30 комфорт 1022.1 1009.8
09 11.06 З 3-6
{6}
35 км 4/0 1500 м
[]
+20.7 +7.9 44 +22 +31 комфорт 1022.2 1009.9
10 11.06 С 3-5
{5}
45 км 1/0 1500 м
[]
+21.5 +7.3 40 +22 +33 комфорт 1022.1 1009.8
11 11.06 ЮЗ 2-2
{4}
30 км 9/0
[]
+21.1 +6.5 39 +22 +29 комфорт 1021.9 1009.6
12 11.06 З 2-4
{4}
35 км 9/1 1500 м
[]
+21.1 +8.1 43 +22 +29 комфорт 1022.0 1009.7
13 11.06 З 2-4
{5}
35 км ясно +21.6 +6.6 38 +22 +33 комфорт 1022.0 1009.7
14 11.06 СЗ 2-3
{4}
35 км 1/0 2000 м
[]
+22.8 +6.2 34 +23 +31 комфорт 1021.6 1009.3
15 11.06 -6
{7}
40 км 1/0 1500 м
[]
+22.1 +8.7 42 1021.3 1009.0
16 11.06 СВ 3-6
{7}
50 км 1/0
[]
+21.6 +9.0 44 +23 +26 комфорт 1021.2 1008.9
17 11.06 СВ 3-4
{7}
50 км 4/0
[]
+20.4 +9.2 49 +22 +23 комфорт 1021.3 1009.0
18 11.06 СВ 4-6
{6}
50 км 6/1 1500 м
[]
+19.5 +9.3 52 +20 +21 1021.5 1009.2 +16.6 +23.2
19 11.06 С 5-7
{8}
50 км 1/0
[]
+18.0 +9.0 56 +18 +18 1022.2 1009.7
20 11.06 СВ 6-9
{11}
50 км 4/0 1500 м
[]
+16.5 +8.2 58 +15 +15 1022.9 1010.4
21 11.06 СВ 6-10
{12}
50 км 6/0 1500 м
[]
+15.3 +7.0 58 +14 +14 1023.7 1011.2
22 11.06 СВ 6-10
{11}
50 км 9/1 1500 м
[]
+13.9 +4.7 54 +12 +12 1024.0 1011.4
23 11.06 СВ 5-9
{13}
50 км 9/0
[]
+12.1 +2.2 51 +10 +10 1024.7 1012.0
00 12.06 СВ 7-10
{11}
50 км 4/0
[]
+10.7 +0.5 49 +8 +8 1025.3 1012.5
01 12.06 СВ 5-8
{11}
50 км 4/0
[]
+9.7 +1.6 57 +7 +7 1025.4 1012.6
02 12.06 СВ 4-7
{7}
50 км 4/0
[]
+9.0 +2.2 62 +6 +6 1025.7 1012.8
03 12.06 СВ 4-6
{7}
50 км 9/0
[]
+9.1 +3.2 67 +6 +7 1025.4 1012.5
04 12.06 СВ 4-6
{7}
50 км 9/0
[]
+9.7 +4.5 70 +7 +8 1025.8 1013.0
05 12.06 СВ 5-8
{8}
50 км 6/0
[]
+10.8 +4.8 66 +8 +10 1025.8 1013.0
06 12.06 СВ 6-8
{9}
45 км 9/9
[]
+11.7 +5.2 64 +9 +9 1025.8 1013.0 +8.9 +19.5
07 12.06 СВ 5-7
{8}
45 км 9/0
[]
+13.1 +5.4 60 +11 +14 1025.6 1013.0
08 12.06 СВ 5-7
{9}
45 км 4/0
[]
+13.9 +5.8 58 +12 +17 1026.4 1013.7
09 12.06 СВ 5-7
{9}
40 км 6/0
[]
+15.3 +6.5 56 +14 +19 1026.1 1013.5
10 12.06 В 5-8
{9}
40 км 1/0
[]
+15.9 +6.1 52 +15 +22 1026.2 1013.6
11 12.06 СВ 5-8
{9}
40 км 9/0
[]
+16.5 +6.0 50 +16 +20 1025.8 1013.3
12 12.06 СВ 6-8
{10}
35 км 1/1
[]
+16.9 +4.7 44 +16 +21 1025.4 1012.9
13 12.06 В 5-7
{10}
35 км 4/0
[]
+17.3 +4.6 43 +17 +21 1025.3 1012.8
14 12.06 В 7-9
{9}
45 км ясно +18.0 +3.7 39 +17 +20 1024.6 1012.1
15 12.06 В 6-9
{9}
35 км 1/0
[]
+18.2 +4.1 39 +18 +20 1023.9 1011.5
16 12.06 В 6-9
{9}
50 км 1/0
[]
+17.6 +3.8 40 +17 +18 1023.8 1011.3
17 12.06 В 5-8
{8}
50 км 9/4
[]
+16.7 +4.3 44 +16 +16 1023.8 1011.3
18 12.06 В 4-5
{7}
50 км 9/9
[]
+16.2 +4.6 46 +16 +16 1023.8 1011.3 +11.6 +18.4
19 12.06 В 5-8
{10}
50 км в посл. час морось 9/9
[]
+15.5 +4.8 49 +14 +14 1023.7 1011.1
20 12.06 ЮВ 5-9
{9}
45 км 9/9
[]
+14.6 +4.9 52 +13 +13 1024.5 1011.9
21 12.06 В 6-9
{10}
50 км в посл. час дождь {ливн. осадки} 9/9
[]
+13.3 +3.5 51 +11 +11 1024.4 1011.8
22 12.06 В 7-10
{10}
50 км 10/10
[]
+12.8 +3.5 53 +10 +10 1024.1 1011.4
23 12.06 В 6-10
{14}
50 км 9/9
[]
+12.3 +3.6 55 +10 +10 1024.0 1011.3
00 13.06 В 7-13
{13}
50 км {ливн. осадки, дождь} 6/6
[]
+11.8 +2.4 52 +9 +9 1023.6 1010.9
01 13.06 В 7-10
{12}
50 км 4/0
[]
+11.0 +3.1 58 +8 +8 1023.3 1010.6
02 13.06 В 7-10
{10}
50 км 10/0 1000 м
[]
+11.2 +3.8 60 +8 +8 1022.5 1009.8
03 13.06 В 8-11
{11}
50 км 9/0 1000 м
[]
+11.1 +4.3 63 +8 +8 1022.0 1009.2
04 13.06 В 8-12
{13}
45 км 1/0
[]
+12.0 +5.7 65 +9 +9 1020.9 1008.2
05 13.06 В 7-11
{13}
45 км 4/0 2000 м
[]
+13.2 +7.0 66 +11 +12 1020.0 1007.4
06 13.06 В 8-10
{12}
40 км 4/4 1000 м
[]
+14.2 +7.8 65 +12 +13 1020.3 1007.8 +11.0 +16.3
07 13.06 В 8-12
{12}
35 км 10/10 1000 м
[]
+15.1 +8.5 65 +13 +13 1019.7 1007.2
08 13.06 В 9-12
{12}
40 км 9/9 600 м
[]
+15.8 +9.2 65 +14 +14 1019.6 1007.1
09 13.06 В 9-12
{12}
45 км 9/9 600 м
[]
+16.4 +10.3 67 +15 +15 1019.6 1007.2
10 13.06 В 9-12
{13}
40 км 4/0 600 м
[]
+17.7 +11.8 68 +17 +18 1018.2 1005.8
11 13.06 ЮВ 7-10
{13}
40 км 9/9 600 м
[]
+17.2 +11.4 69 +16 +17 1018.8 1006.4
12 13.06 ЮВ 10-14
{14}
35 км 10/10 600 м
[]
+16.1 +11.4 74 +14 +14 1018.2 1005.7
13 13.06 В 8-12
{14}
30 км слаб. ливневой дождь 9/0 300 м
[]
+15.8 +11.6 76 +14 +15 1017.6 1005.2
14 13.06 В 7-10
{11}
45 км слаб. дождь 10/0 300 м
[]
+15.7 +12.0 79 +14 +15 1017.3 1004.8
15 13.06 В 7-9
{11}
40 км {ливн. осадки, дождь} 9/0 300 м
[]
+16.9 +13.1 78 +16 +17 1016.8 1004.4
16 13.06 В 5-7
{11}
45 км 10/10 300 м
[]
+15.3 +12.8 85 +14 +14 1017.0 1004.5
17 13.06 В 6-8
{9}
40 км 9/9 300 м
[]
+15.5 +13.5 88 +14 +14 1016.2 1003.7
18 13.06 В 6-9
{9}
45 км {ливн. осадки, дождь} 1/1 300 м
[]
+15.7 +13.2 85 +14 +14 1016.1 1003.6 +14.2 +19.0
19 13.06 В 4-6
{10}
45 км 10/10 600 м
[]
+15.5 +13.1 86 +15 +15 1016.1 1003.7
20 13.06 В 4-6
{7}
50 км 9/9 600 м
[]
+15.3 +12.5 83 +14 +14 1015.7 1003.2
21 13.06 В 4-6
{6}
17 км морось {дождь} 10/10 300 м
[]
+14.9 +12.4 85 +14 +14 1016.1 1003.6
22 13.06 СВ 3-5
{5}
50 км в посл. час морось 9/9 300 м
[]
+14.6 +12.2 86 +14 +14 1015.5 1003.0
23 13.06 В 3-4
{5}
50 км 10/0 300 м
[]
+14.3 +12.3 88 +13 +13 1015.4 1002.9
00 14.06 В 3-5
{5}
50 км {ливн. осадки, дождь} 10/10 300 м
[]
+14.2 +12.3 88 +13 +13 1014.7 1002.2
01 14.06 В 2-4
{5}
50 км 10/10 200 м
[]
+14.3 +12.5 89 +14 +14 1014.8 1002.3
02 14.06 В 3-5
{5}
50 км 10/0 200 м
[]
+14.3 +12.8 91 +13 +13 1014.8 1002.3
03 14.06 В 4-5
{5}
11 км 10/0 200 м
[]
+14.0 +13.1 94 +12 +13 1014.8 1002.3
04 14.06 В 2-3
{4}
2900 м дымка 10/10 50 м
[]
+13.6 +13.3 98 +13 +13 1015.0 1002.5
05 14.06 В 4-5
{5}
7000 м слаб. ливневой дождь 9/9 50 м
[]
+14.1 +14.0 99 +13 +13 1014.5 1002.0
06 14.06 В 3-4
{5}
10 км {ливн. осадки, дождь} 10/10 50 м
[]
+14.7 +14.3 97 +14 +14 1014.8 1002.3 +13.5 +15.7
07 14.06 В 3-4
{4}
12 км 10/10 100 м
[]
+15.5 +14.7 95 +15 +15 1014.7 1002.3
08 14.06 СВ 3-4
{4}
6000 м дымка 10/0 100 м
[]
+16.0 +15.3 96 +15 +20 1015.0 1002.6
09 14.06 В 4-5
{5}
8000 м дымка 10/10 100 м
[]
+16.4 +15.9 97 +16 +16 1015.4 1003.0
10 14.06 В 4-5
{5}
6000 м дымка 10/10 100 м
[]
+16.5 +16.1 97 +16 +16 1015.6 1003.2
11 14.06 В 3-5
{5}
6000 м дымка 10/10 100 м
[]
+16.7 +16.3 97 +16 +16 1015.7 1003.3
12 14.06 ЮВ 2-4
{5}
4000 м морось {дождь} 10/10 50 м
[]
+16.9 +16.7 99 +17 +17 1015.5 1003.2 0.1
13 14.06 ЮЗ 3-5
{6}
2700 м сильн. морось 10/10 50 м
[]
+16.5 +16.3 99 +16 +16 1015.8 1003.4 0.2
14 14.06 ЮЗ 3-5
{6}
7000 м в посл. час морось 9/9 100 м
[]
+16.7 +16.3 97 +16 +17 1015.7 1003.3
15 14.06 ЮЗ 3-6
{7}
2500 м дымка 10/10 50 м
[]
+15.8 +15.5 98 +15 +15 1015.7 1003.3
16 14.06 ЮЗ 3-5
{5}
9000 м дымка 10/10 100 м
[]
+16.0 +15.5 97 +15 +15 1015.6 1003.1
17 14.06 З 4-7
{7}
11 км слаб. дождь 10/10 100 м
[]
+15.9 +15.3 96 +15 +15 1015.5 1003.1
18 14.06 З 3-7
{9}
21 км {ливн. осадки, дождь} 10/10 100 м
[]
+14.1 +13.4 96 +13 +13 1015.9 1003.4 +14.1 +16.9 0.3
19 14.06 З 3-6
{7}
30 км 10/10 200 м
[]
+13.5 +12.7 95 +12 +12 1016.5 1003.9
20 14.06 З 3-6
{7}
30 км 10/10 200 м
[]
+13.2 +12.2 94 +12 +12 1016.9 1004.3
21 14.06 З 3-6
{6}
30 км 9/9 200 м
[]
+12.9 +11.9 94 +11 +11 1017.0 1004.4
22 14.06 З 4-7
{8}
35 км 10/10 200 м
[]
+12.5 +11.4 93 +10 +10 1016.9 1004.3
23 14.06 З 4-8
{8}
26 км 10/10 100 м
[]
+11.4 +10.8 96 +9 +9 1017.2 1004.6
00 15.06 З 3-6
{8}
35 км 10/10 100 м
[]
+11.2 +10.5 95 +9 +9 1017.6 1004.9
01 15.06 З 3-7
{8}
26 км 10/10 100 м
[]
+10.8 +10.3 97 +9 +9 1017.6 1004.9
02 15.06 З 3-7
{8}
15 км 10/10 50 м
[]
+10.5 +10.1 97 +8 +8 1017.3 1004.6
03 15.06 З 2-5
{7}
18 км 10/10 50 м
[]
+10.4 +10.0 97 +9 +9 1017.4 1004.7
04 15.06 З 2-5
{5}
16 км 10/10 50 м
[]
+10.6 +10.3 98 +9 +9 1017.5 1004.8
05 15.06 З 2-3
{5}
19 км 10/10 50 м
[]
+11.1 +10.6 97 +10 +10 1017.1 1004.5
06 15.06 СЗ 2-4
{4}
22 км 10/10 100 м
[]
+12.2 +11.1 93 +11 +11 1017.0 1004.3 +10.3 +14.1
07 15.06 З 1-3
{4}
35 км 10/10 200 м
[]
+13.0 +11.6 91 +13 +13 1017.0 1004.4
08 15.06 З 2-4
{4}
40 км 9/9 200 м
[]
+13.8 +11.9 88 +13 +14 1017.2 1004.6
09 15.06 З 2-5
{5}
45 км 9/9 300 м
[]
+14.7 +12.1 84 +14 +16 1017.5 1005.0
10 15.06 СЗ 2-5
{5}
40 км 9/9 300 м
[]
+16.2 +12.8 80 +16 +18 1017.2 1004.8
11 15.06 З 2-5
{6}
35 км 4/0 300 м
[]
+17.8 +13.1 74 +18 +29 1016.9 1004.5
12 15.06 З 3-6
{6}
35 км 6/6 600 м
[]
+18.1 +13.3 74 +18 +23 1017.0 1004.7
13 15.06 СЗ 4-7
{7}
35 км 1/0 600 м
[]
+19.9 +13.0 64 +22 +29 комфорт 1016.8 1004.5
14 15.06 СЗ 3-5
{6}
35 км 1/0 1000 м
[]
+19.7 +13.0 65 +22 +28 комфорт 1016.4 1004.1
15 15.06 СЗ 4-6
{7}
30 км 1/0 1000 м
[]
+20.6 +12.9 61 +23 +27 комфорт 1016.1 1003.9
16 15.06 СЗ 4-7
{8}
50 км ясно +20.3 +12.0 59 +22 +25 комфорт 1016.0 1003.7
17 15.06 С 3-5
{6}
50 км ясно +19.2 +12.8 66 +21 +22 комфорт 1015.9 1003.6
18 15.06 С 3-5
{5}
50 км ясно +18.3 +13.1 72 +19 +19 1015.9 1003.5 +12.1 +21.0
19 15.06 СВ 2-3
{5}
50 км ясно +16.8 +13.0 78 +17 +17 1016.1 1003.7
20 15.06 СВ 3-3
{5}
50 км ясно +14.9 +12.5 86 +14 +14 1016.3 1003.8
21 15.06 В 2-2
{3}
50 км ясно +12.7 +12.1 96 +12 +12 1016.6 1004.0
22 15.06 В 1-1
{2}
30 км ясно +10.9 +10.4 97 +10 +10 1016.6 1004.0
23 15.06 В 1-2
{2}
2500 м туман ясно +10.3 +10.2 99 +10 +10 1016.4 1003.7
00 16.06 ЮВ 1-1
{2}
4800 м в посл. час туман ясно +9.8 +9.8 100 +9 +9 1016.6 1003.9
01 16.06 В 2-3
{3}
500 м туман 1/0 <50 м
[]
+8.3 +8.3 100 +6 +6 1016.7 1003.9
02 16.06 Ю 1-2
{4}
18 км в посл. час туман 1/0 1500 м
[]
+10.1 +10.1 100 +9 +10 1016.4 1003.7
03 16.06 В 1-1
{2}
30 км {метель} ясно +12.0 +11.9 99 +12 +13 1016.0 1003.4
04 16.06 ЮВ 1-2
{2}
50 км 1/0 1500 м
[]
+14.5 +12.7 89 +15 +17 1015.9 1003.4
05 16.06 ЮВ 3-4
{4}
40 км ясно +16.3 +13.8 85 +16 +19 1015.4 1003.0
06 16.06 Ю 3-6
{6}
35 км {туман, метель} ясно +17.8 +13.9 78 +18 +23 1015.4 1003.0 +7.9 +18.5
07 16.06 Ю 4-6
{6}
35 км 1/0 300 м
[]
+18.3 +13.5 74 +19 +24 1015.1 1002.8
08 16.06 ЮЗ 3-5
{6}
30 км ясно +19.9 +12.9 64 +22 +31 комфорт 1014.8 1002.5
09 16.06 ЮЗ 3-5
{6}
30 км 1/0 1000 м
[]
+20.7 +13.4 63 +24 +34 комфорт 1014.5 1002.3
10 16.06 ЮЗ 4-6
{6}
35 км 1/0 1000 м
[]
+21.3 +12.0 55 +23 +32 комфорт 1014.2 1002.0
11 16.06 ЮЗ 3-6
{8}
30 км 6/0 1000 м
[]
+23.0 +12.3 51 +26 +34 жарко 1013.7 1001.6
12 16.06 З 2-5
{7}
45 км 6/6 1500 м
[]
+23.9 +11.3 45 +25 +30 комфорт 1013.2 1001.1
13 16.06 З 3-7
{9}
40 км 1/0 1500 м
[]
+24.1 +10.1 41 +25 +34 комфорт 1013.1 1001.0
14 16.06 З 3-7
{7}
35 км ясно +23.7 +10.5 43 +25 +32 комфорт 1012.9 1000.8
15 16.06 З 4-8
{8}
45 км ясно +23.4 +10.3 44 +25 +29 комфорт 1012.8 1000.7
16 16.06 З 3-6
{9}
50 км ясно +22.8 +10.3 45 +25 +28 комфорт 1012.9 1000.7
17 16.06 З 3-8
{8}
50 км ясно +21.3 +8.8 45 +23 +24 комфорт 1013.0 1000.8
18 16.06 З 2-4
{7}
50 км ясно +20.1 +9.2 49 +22 +23 комфорт 1013.0 1000.8 +17.5 +24.5
19 16.06 З 2-4
{5}
45 км ясно +18.7 +9.2 54 +20 +20 1013.2 1000.9
20 16.06 ЮЗ 2-3
{4}
50 км ясно +15.5 +9.7 68 +15 +15 1013.5 1001.1
21 16.06 З 2-4
{4}
50 км ясно +14.9 +9.6 71 +15 +15 1013.5 1001.1
22 16.06 З 2-3
{4}
50 км ясно +12.6 +9.3 80 +12 +12 1013.9 1001.3
23 16.06 ЮЗ 1-2
{3}
50 км ясно +10.6 +9.3 92 +10 +10 1014.0 1001.3
00 17.06 ЮЗ 1-2
{3}
50 км ясно +9.9 +8.8 93 +9 +9 1013.8 1001.1
01 17.06 ЮЗ 2-3
{3}
45 км 1/0 2000 м
[]
+9.2 +8.7 97 +7 +7 1013.5 1000.8
02 17.06 ЮЗ 2-3
{4}
50 км 6/0 2000 м
[]
+10.6 +9.6 94 +9 +9 1013.2 1000.6
03 17.06 ЮЗ 2-3
{3}
45 км 1/0 2000 м
[]
+12.4 +10.9 91 +11 +12 1013.1 1000.5
04 17.06 ЮЗ 3-4
{5}
45 км ясно +15.5 +11.3 76 +15 +17 1012.6 1000.2
05 17.06 З 2-4
{4}
40 км ясно +17.6 +12.5 72 +18 +22 1012.4 1000.1
06 17.06 ЮЗ 2-3
{4}
35 км 1/1
[]
+18.7 +13.4 71 +20 +26 1012.2 999.9 +9.1 +20.1
07 17.06 ЮЗ 4-5
{5}
40 км 9/0
[]
+20.5 +14.0 66 +23 +26 комфорт 1012.2 1000.0
08 17.06 ЮЗ 3-5
{6}
35 км 4/0
[]
+21.7 +14.2 62 +25 +32 комфорт 1012.2 1000.0
09 17.06 З 3-5
{5}
29 км 9/0
[]
+23.2 +14.6 58 +27 +33 душно 1012.1 1000.0
10 17.06 З 4-6
{7}
30 км 4/0 2000 м
[]
+24.0 +14.8 56 +27 +34 жарко 1011.8 999.8
11 17.06 ЮЗ 5-9
{9}
30 км 9/1 1000 м
[]
+25.0 +13.4 49 +27 +31 жарко 1011.5 999.5
12 17.06 ЮЗ 3-6
{8}
1000 м слаб. ливневой дождь 9/6 1500 м
[]
+22.2 +14.2 60 +25 +28 комфорт 1011.9 999.8 0.2
13 17.06 ЮЗ 2-7
{7}
30 км в посл. час дождь 9/1 1500 м
[]
+22.6 +15.6 65 +27 +32 душно 1011.4 999.3 1
14 17.06 З 4-8
{11}
40 км 4/1 1000 м
[]
+23.6 +15.0 59 +26 +31 жарко 1011.3 999.2
15 17.06 З 5-9
{11}
30 км {ливн. осадки} 4/1 1000 м
[]
+24.0 +13.1 51 +26 +28 жарко 1011.2 999.1
16 17.06 ЮЗ 5 40 км ясно +23.2 +12.0 49 +26 +28 жарко 1011.0 998.9
17 17.06 З 4-9
{10}
50 км ясно +21.7 +9.2 45 +23 +24 комфорт 1011.2 999.1
18 17.06 ЮЗ 5-9
{10}
50 км {ливн. осадки, метель} ясно +19.9 +9.0 49 +21 +21 комфорт 1011.6 999.4 +18.7 +25.8 2
19 17.06 З 3-6
{8}
50 км ясно +18.1 +9.1 56 +18 +18 1012.1 999.8
20 17.06 ЮЗ 2-3
{4}
50 км ясно +15.1 +9.6 70 +15 +15 1012.2 999.8

 

Местоположение метеостанции Йокиойнен (Финляндия): широта 60.81 долгота 23.50 высота над уровнем моря 104 м.

В архиве по умолчанию представлена погода в Йокиойнене за последнюю неделю. Архивные данные за месяц целиком и за предыдущие месяцы, начиная с января 2011 года, Вы можете получить, выбрав интересующий диапазон дат из раскрывающегося списка и нажав кнопку "Ввод!".


*Определитесь, кто Вы:
робот инопланетянин человек

Внимание! Время в таблицах - всемирное. Для получения местного времени необходимо прибавить поправку, которая равна 1 ч.

Смотрите также архив погоды в соседних городах и на ближайших метеорологических станциях:

Погода в Сомеро Салкола (Финляндия) (25 км)
Погода в Аэропорту Сало Киикала (Финляндия) (40 км)
Погода в Сало (Финляндия) (53 км)
Погода в Лепаа (Финляндия) (55 км)
Погода в Хямеэнлинна (Финляндия) (58 км)
Погода в Вихти (Финляндия) (66 км)
Погода в Аэропорту Пирккала (Финляндия) (68 км)
Погода в Пиккио Йолтoнен (Финляндия) (70 км)
Погода в Лохья Порла (Финляндия) (70 км)
Погода в Нурмиярви (Финляндия) (71 км)

Пояснения к столбцам:

Ветер - указаны скорость ветра в м/с - средняя за 10 мин, порывы в срок и между сроками (в фигурных скобках) и направление, откуда дует ветер: С - северный, СВ - северо-восточный, В - восточный, ЮВ - юго-восточный, Ю - южный, ЮЗ - юго-западный, З - западный, СЗ - северо-западный.
Видимость - горизонтальная дальность видимости в метрах или километрах. При видимости от 1 до 10 км при отсутствии осадков обычно наблюдается дымка, при ухудшении видимости до 1 км и менее - туман. В сухую погоду видимость может ухудшаться дымом, пылью или мглою.
Явления - указаны атмосферные явления, наблюдавшиеся в срок или в последний час перед сроком; фигурными скобками обозначены явления, наблюдавшиеся между сроками (за 1-3 часа до срока); квадратными скобками обозначены град или гололедные отложения с указанием их диаметра в мм.
Облачность - указаны через наклонную черту общая и нижняя облачность в баллах и высота нижней границы облаков в метрах; квадратными скобками обозначены формы облаков: Ci - перистые, Cs - перисто-слоистые, Cc - перисто-кучевые, Ac - высококучевые, As - высокослоистые, Sc - слоисто-кучевые, Ns - слоисто-дождевые, Cu - кучевые, Cb - кучево-дождевые. Подробнее классификацию облаков см. в Атласе облаков (PDF).
T - Температура воздуха - температура, измеренная на высоте 2 м над землей.
Td - Температура точки росы - температура, при понижении до которой содержащийся в воздухе водяной пар достигнет насыщения.
f - Относительная влажность воздуха - влажноcть воздуха, измеренная на высоте 2 м над землей.
Te - Эффективная температура - температура, которую ощущает одетый по сезону человек в тени. Характеристика душности погоды. При расчете учитывается влияние влажности воздуха и скорости ветра на теплоощущения человека.
Tes - Эффективная температура на солнце - температура, которую ощущает человек, с поправкой на солнечный нагрев. Характеристика знойности погоды. Зависит от высоты солнца над горизонтом, облачности и скорости ветра. Ночью, в пасмурную погоду, а также при ветре 12 м/с и более поправка равна нулю.
P - Атмосферное давление - приведенное к уровню моря атмосферное давление.
Po - Атмосферное давление - измеренное на уровне метеостанции атмосферное давление.
Tmin - Минимальная температура - минимум температуры воздуха на высоте 2 м над землей.
Tmax - Максимальная температура - максимум температуры воздуха на высоте 2 м над землей.
R - Количество осадков - Количество выпавших осадков за период времени, мм. При наведении курсора мыши на число - период времени, за который выпало указанное количество осадков.
R24 - Количество осадков - Количество выпавших осадков за 24 часа, мм.
S - Снежный покров - Высота снежного покрова, см. При наведении курсора мыши на число - состояние снежного покрова и степень покрытия местности в баллах.